Precipitable_Water
0.24 0.17 0.15 0.14 0.16 0.17 0.19 0.18 0.18 0.20 0.20 0.21 0.21 0.20 0.18 0.18 0.19 0.22 0.23 0.27 0.28 0.21 0.19 0.20 0.19 0.17 0.18 0.20 0.21 0.23 0.25 0.25 0.28 0.30 0.32 0.36 0.39 0.40 0.43 0.45 0.46 0.45 0.44 0.52 0.52 0.53 0.54 0.56 0.58 0.60 0.63 0.63 0.64 0.66 0.67 0.67 0.65 0.63 0.60 0.60 0.58 0.60 0.59 0.56 0.54 0.50 0.44 0.40 0.40 0.44 0.43 0.41 0.43 0.46 0.50 0.52 0.53 0.56 0.58 0.61 0.63 0.63 0.64 0.65 0.68 0.72
0.22 0.14 0.14 0.17 0.19 0.20 0.21 0.22 0.23 0.24 0.23 0.21 0.21 0.20 0.19 0.20 0.18 0.22 0.23 0.28 0.28 0.20 0.19 0.22 0.19 0.18 0.18 0.21 0.22 0.26 0.24 0.23 0.24 0.26 0.30 0.34 0.39 0.42 0.44 0.45 0.47 0.48 0.52 0.53 0.51 0.52 0.55 0.57 0.58 0.60 0.62 0.63 0.59 0.63 0.66 0.67 0.66 0.64 0.62 0.58 0.59 0.60 0.58 0.57 0.53 0.50 0.44 0.40 0.42 0.41 0.40 0.39 0.42 0.44 0.45 0.45 0.47 0.48 0.52 0.53 0.52 0.51 0.51 0.51 0.53 0.58
0.15 0.13 0.16 0.20 0.24 0.25 0.24 0.24 0.25 0.24 0.23 0.23 0.21 0.21 0.19 0.20 0.21 0.23 0.24 0.28 0.28 0.24 0.21 0.23 0.20 0.21 0.22 0.22 0.24 0.24 0.24 0.25 0.25 0.25 0.27 0.30 0.35 0.39 0.43 0.46 0.49 0.50 0.49 0.50 0.50 0.53 0.55 0.57 0.58 0.59 0.60 0.62 0.64 0.66 0.68 0.70 0.69 0.65 0.62 0.59 0.61 0.60 0.58 0.57 0.55 0.51 0.44 0.46 0.47 0.43 0.41 0.41 0.41 0.47 0.47 0.44 0.46 0.48 0.47 0.48 0.47 0.46 0.45 0.44 0.44 0.48
0.12 0.14 0.22 0.26 0.26 0.24 0.24 0.25 0.24 0.24 0.24 0.22 0.21 0.20 0.18 0.21 0.19 0.17 0.23 0.26 0.27 0.25 0.23 0.24 0.21 0.22 0.25 0.26 0.25 0.26 0.26 0.27 0.28 0.28 0.27 0.29 0.29 0.33 0.39 0.43 0.45 0.47 0.48 0.47 0.48 0.50 0.54 0.55 0.57 0.58 0.58 0.61 0.64 0.66 0.69 0.70 0.68 0.66 0.62 0.60 0.62 0.61 0.59 0.57 0.56 0.52 0.53 0.51 0.49 0.48 0.46 0.46 0.41 0.40 0.45 0.46 0.48 0.47 0.46 0.44 0.47 0.47 0.46 0.44 0.45 0.52
0.14 0.19 0.27 0.26 0.26 0.24 0.21 0.24 0.23 0.21 0.20 0.23 0.22 0.20 0.19 0.20 0.23 0.22 0.22 0.25 0.27 0.28 0.28 0.25 0.21 0.21 0.23 0.22 0.24 0.27 0.29 0.28 0.28 0.28 0.29 0.30 0.32 0.35 0.38 0.42 0.47 0.48 0.47 0.46 0.48 0.52 0.54 0.54 0.54 0.53 0.57 0.62 0.62 0.66 0.67 0.68 0.67 0.66 0.62 0.61 0.62 0.61 0.59 0.59 0.60 0.58 0.57 0.53 0.49 0.49 0.47 0.46 0.43 0.43 0.44 0.43 0.42 0.45 0.46 0.45 0.46 0.46 0.47 0.47 0.50 0.53
0.18 0.23 0.27 0.25 0.25 0.25 0.23 0.21 0.22 0.22 0.19 0.21 0.24 0.23 0.24 0.26 0.26 0.26 0.25 0.22 0.20 0.20 0.25 0.24 0.18 0.17 0.21 0.22 0.23 0.27 0.28 0.28 0.31 0.29 0.29 0.30 0.33 0.36 0.37 0.37 0.42 0.46 0.49 0.48 0.48 0.48 0.49 0.50 0.53 0.56 0.57 0.59 0.63 0.64 0.66 0.68 0.69 0.67 0.63 0.62 0.63 0.62 0.61 0.61 0.62 0.61 0.58 0.53 0.48 0.43 0.39 0.35 0.35 0.34 0.36 0.36 0.35 0.38 0.41 0.43 0.48 0.48 0.48 0.49 0.51 0.53
0.19 0.25 0.27 0.24 0.24 0.24 0.24 0.22 0.26 0.26 0.22 0.21 0.24 0.29 0.29 0.29 0.27 0.25 0.23 0.22 0.18 0.15 0.23 0.28 0.18 0.16 0.22 0.22 0.24 0.26 0.27 0.27 0.30 0.30 0.31 0.33 0.34 0.36 0.37 0.39 0.41 0.44 0.46 0.50 0.52 0.53 0.53 0.54 0.54 0.54 0.56 0.59 0.61 0.63 0.68 0.70 0.69 0.68 0.64 0.62 0.63 0.62 0.62 0.64 0.65 0.63 0.59 0.54 0.51 0.45 0.39 0.35 0.33 0.32 0.35 0.39 0.43 0.42 0.45 0.48 0.47 0.47 0.50 0.52 0.53 0.54
0.22 0.23 0.24 0.26 0.24 0.24 0.24 0.22 0.27 0.28 0.25 0.23 0.31 0.33 0.32 0.30 0.26 0.25 0.24 0.23 0.21 0.25 0.26 0.25 0.23 0.18 0.17 0.21 0.26 0.28 0.27 0.27 0.28 0.30 0.31 0.32 0.32 0.33 0.34 0.36 0.39 0.41 0.43 0.44 0.46 0.49 0.50 0.51 0.50 0.50 0.54 0.59 0.60 0.64 0.67 0.66 0.68 0.64 0.62 0.62 0.63 0.64 0.63 0.64 0.66 0.62 0.58 0.52 0.49 0.46 0.43 0.39 0.36 0.35 0.35 0.39 0.41 0.46 0.47 0.46 0.47 0.48 0.50 0.52 0.54 0.56
0.19 0.20 0.21 0.21 0.23 0.22 0.23 0.27 0.32 0.32 0.27 0.28 0.34 0.34 0.31 0.30 0.27 0.26 0.25 0.23 0.24 0.21 0.18 0.21 0.26 0.18 0.17 0.21 0.26 0.27 0.23 0.24 0.25 0.27 0.28 0.30 0.31 0.32 0.32 0.33 0.36 0.38 0.40 0.41 0.42 0.44 0.47 0.48 0.50 0.52 0.54 0.59 0.63 0.64 0.63 0.63 0.62 0.61 0.60 0.60 0.62 0.62 0.62 0.64 0.65 0.62 0.58 0.54 0.49 0.47 0.45 0.41 0.40 0.41 0.41 0.43 0.46 0.45 0.47 0.45 0.47 0.48 0.49 0.52 0.54 0.55
0.18 0.18 0.21 0.23 0.22 0.20 0.27 0.32 0.35 0.35 0.29 0.34 0.36 0.36 0.33 0.31 0.29 0.28 0.24 0.23 0.22 0.19 0.16 0.19 0.23 0.17 0.17 0.21 0.20 0.22 0.21 0.22 0.24 0.27 0.28 0.30 0.31 0.31 0.30 0.29 0.31 0.33 0.36 0.41 0.43 0.43 0.44 0.46 0.48 0.51 0.55 0.60 0.61 0.64 0.68 0.70 0.68 0.64 0.61 0.60 0.61 0.61 0.62 0.64 0.65 0.64 0.58 0.53 0.51 0.48 0.46 0.42 0.41 0.43 0.44 0.45 0.44 0.45 0.45 0.43 0.44 0.45 0.47 0.49 0.51 0.54
0.18 0.21 0.25 0.22 0.21 0.23 0.28 0.32 0.35 0.36 0.35 0.36 0.33 0.28 0.27 0.26 0.24 0.24 0.24 0.21 0.19 0.15 0.15 0.18 0.21 0.19 0.14 0.19 0.19 0.19 0.20 0.24 0.25 0.26 0.28 0.29 0.30 0.31 0.31 0.30 0.31 0.31 0.33 0.36 0.40 0.43 0.42 0.45 0.48 0.55 0.58 0.59 0.62 0.65 0.68 0.69 0.69 0.65 0.60 0.60 0.60 0.62 0.63 0.64 0.64 0.64 0.59 0.54 0.50 0.48 0.46 0.43 0.41 0.43 0.43 0.42 0.43 0.44 0.43 0.40 0.41 0.42 0.44 0.47 0.48 0.51
0.19 0.19 0.18 0.21 0.24 0.26 0.29 0.28 0.33 0.35 0.35 0.33 0.28 0.26 0.23 0.21 0.22 0.20 0.19 0.20 0.15 0.13 0.16 0.19 0.20 0.20 0.13 0.17 0.21 0.25 0.26 0.28 0.27 0.25 0.24 0.26 0.28 0.29 0.31 0.31 0.31 0.30 0.32 0.34 0.38 0.41 0.44 0.47 0.50 0.54 0.56 0.59 0.60 0.63 0.66 0.68 0.71 0.66 0.61 0.59 0.58 0.62 0.63 0.64 0.64 0.64 0.61 0.56 0.52 0.50 0.49 0.45 0.44 0.43 0.43 0.41 0.40 0.42 0.40 0.39 0.38 0.41 0.43 0.44 0.46 0.48
0.18 0.18 0.19 0.19 0.26 0.24 0.26 0.24 0.25 0.29 0.32 0.29 0.27 0.25 0.18 0.16 0.16 0.14 0.17 0.13 0.13 0.13 0.18 0.20 0.21 0.17 0.14 0.17 0.23 0.27 0.28 0.29 0.29 0.28 0.27 0.27 0.28 0.30 0.30 0.31 0.32 0.33 0.34 0.34 0.36 0.40 0.45 0.46 0.46 0.48 0.53 0.59 0.59 0.58 0.62 0.66 0.69 0.68 0.63 0.60 0.57 0.58 0.62 0.62 0.64 0.62 0.61 0.57 0.52 0.50 0.50 0.47 0.46 0.46 0.44 0.42 0.41 0.42 0.40 0.39 0.38 0.39 0.39 0.42 0.41 0.43
0.17 0.20 0.19 0.19 0.20 0.25 0.25 0.20 0.21 0.21 0.26 0.26 0.24 0.22 0.18 0.15 0.14 0.12 0.14 0.16 0.16 0.19 0.22 0.21 0.23 0.14 0.16 0.20 0.26 0.27 0.30 0.31 0.30 0.30 0.30 0.29 0.29 0.30 0.30 0.32 0.33 0.34 0.36 0.37 0.39 0.40 0.42 0.45 0.49 0.50 0.53 0.56 0.56 0.58 0.62 0.64 0.68 0.67 0.64 0.60 0.57 0.56 0.60 0.61 0.61 0.60 0.59 0.57 0.53 0.52 0.51 0.50 0.48 0.47 0.47 0.45 0.42 0.42 0.41 0.40 0.39 0.39 0.40 0.40 0.39 0.40
0.12 0.13 0.17 0.18 0.15 0.22 0.22 0.21 0.21 0.21 0.22 0.24 0.27 0.24 0.20 0.18 0.15 0.13 0.15 0.14 0.15 0.16 0.20 0.25 0.19 0.16 0.14 0.18 0.29 0.30 0.31 0.32 0.32 0.32 0.31 0.31 0.30 0.31 0.32 0.33 0.34 0.35 0.37 0.39 0.39 0.41 0.43 0.45 0.48 0.52 0.56 0.57 0.58 0.60 0.63 0.66 0.66 0.67 0.65 0.62 0.58 0.56 0.58 0.58 0.59 0.60 0.59 0.58 0.55 0.52 0.52 0.52 0.51 0.49 0.48 0.48 0.48 0.46 0.44 0.43 0.41 0.41 0.43 0.41 0.41 0.41
0.16 0.15 0.19 0.23 0.24 0.26 0.22 0.25 0.26 0.24 0.23 0.25 0.25 0.25 0.21 0.18 0.21 0.15 0.17 0.17 0.16 0.16 0.16 0.20 0.17 0.23 0.22 0.29 0.30 0.30 0.30 0.30 0.31 0.30 0.31 0.30 0.30 0.30 0.30 0.32 0.34 0.36 0.37 0.40 0.42 0.43 0.47 0.49 0.51 0.53 0.56 0.59 0.62 0.64 0.66 0.67 0.67 0.66 0.64 0.63 0.60 0.57 0.58 0.61 0.63 0.64 0.65 0.65 0.61 0.55 0.52 0.52 0.53 0.52 0.52 0.52 0.52 0.50 0.48 0.46 0.44 0.43 0.44 0.44 0.43 0.45
0.16 0.14 0.21 0.23 0.25 0.24 0.24 0.26 0.26 0.25 0.17 0.22 0.23 0.20 0.21 0.26 0.22 0.19 0.20 0.21 0.19 0.17 0.14 0.19 0.18 0.22 0.27 0.28 0.28 0.27 0.27 0.27 0.27 0.28 0.29 0.28 0.29 0.29 0.29 0.31 0.34 0.35 0.37 0.40 0.42 0.45 0.48 0.51 0.53 0.56 0.58 0.61 0.63 0.64 0.66 0.68 0.69 0.69 0.68 0.68 0.64 0.62 0.63 0.64 0.68 0.70 0.70 0.72 0.68 0.60 0.55 0.55 0.55 0.54 0.52 0.52 0.52 0.52 0.51 0.48 0.48 0.47 0.48 0.48 0.46 0.45
0.14 0.15 0.21 0.21 0.21 0.25 0.28 0.27 0.26 0.26 0.25 0.23 0.18 0.21 0.28 0.31 0.26 0.20 0.15 0.17 0.15 0.12 0.13 0.16 0.14 0.16 0.18 0.17 0.27 0.26 0.25 0.26 0.26 0.26 0.27 0.27 0.28 0.27 0.29 0.31 0.33 0.34 0.36 0.39 0.44 0.48 0.51 0.53 0.56 0.59 0.62 0.64 0.66 0.68 0.69 0.69 0.71 0.71 0.71 0.71 0.72 0.73 0.71 0.70 0.70 0.71 0.71 0.72 0.72 0.67 0.59 0.57 0.57 0.56 0.56 0.56 0.56 0.56 0.53 0.52 0.51 0.51 0.51 0.50 0.50 0.48
0.21 0.14 0.17 0.21 0.21 0.25 0.28 0.27 0.25 0.27 0.28 0.22 0.21 0.31 0.21 0.19 0.18 0.24 0.18 0.14 0.13 0.13 0.14 0.16 0.17 0.17 0.18 0.18 0.23 0.23 0.23 0.23 0.25 0.26 0.26 0.26 0.26 0.26 0.28 0.29 0.31 0.34 0.36 0.38 0.39 0.43 0.47 0.52 0.55 0.59 0.62 0.67 0.70 0.73 0.74 0.73 0.74 0.74 0.74 0.76 0.77 0.75 0.76 0.75 0.75 0.76 0.77 0.76 0.71 0.69 0.67 0.62 0.60 0.60 0.60 0.61 0.61 0.60 0.56 0.54 0.54 0.53 0.53 0.55 0.55 0.52
0.25 0.16 0.16 0.22 0.22 0.25 0.26 0.23 0.18 0.22 0.28 0.28 0.28 0.25 0.28 0.23 0.20 0.18 0.20 0.22 0.20 0.16 0.16 0.15 0.18 0.16 0.21 0.21 0.23 0.23 0.24 0.24 0.24 0.24 0.25 0.26 0.26 0.26 0.27 0.28 0.30 0.32 0.34 0.37 0.41 0.42 0.44 0.46 0.51 0.58 0.61 0.63 0.65 0.68 0.72 0.74 0.77 0.76 0.77 0.76 0.76 0.76 0.78 0.79 0.75 0.73 0.75 0.79 0.81 0.79 0.77 0.71 0.68 0.65 0.63 0.64 0.63 0.61 0.59 0.56 0.57 0.57 0.57 0.57 0.58 0.56
0.24 0.25 0.16 0.21 0.26 0.25 0.19 0.22 0.20 0.22 0.21 0.22 0.23 0.22 0.23 0.23 0.27 0.23 0.24 0.20 0.18 0.16 0.16 0.15 0.14 0.16 0.21 0.26 0.24 0.23 0.23 0.23 0.24 0.24 0.25 0.26 0.27 0.28 0.28 0.29 0.31 0.32 0.34 0.36 0.38 0.41 0.42 0.44 0.47 0.52 0.57 0.62 0.66 0.70 0.73 0.74 0.74 0.75 0.77 0.75 0.74 0.73 0.74 0.75 0.77 0.76 0.74 0.75 0.77 0.72 0.72 0.73 0.72 0.69 0.68 0.66 0.66 0.65 0.63 0.60 0.60 0.60 0.60 0.62 0.60 0.60
0.25 0.24 0.19 0.22 0.21 0.21 0.22 0.26 0.26 0.25 0.26 0.24 0.23 0.22 0.23 0.21 0.20 0.17 0.16 0.23 0.21 0.18 0.15 0.15 0.13 0.18 0.23 0.29 0.26 0.24 0.25 0.25 0.25 0.25 0.25 0.26 0.27 0.28 0.29 0.30 0.32 0.33 0.36 0.37 0.39 0.41 0.42 0.42 0.44 0.47 0.51 0.55 0.60 0.63 0.66 0.70 0.74 0.75 0.76 0.78 0.77 0.74 0.74 0.74 0.75 0.74 0.71 0.73 0.79 0.77 0.73 0.74 0.77 0.75 0.72 0.69 0.68 0.67 0.66 0.63 0.61 0.62 0.63 0.61 0.63 0.62
0.29 0.26 0.22 0.20 0.21 0.22 0.27 0.31 0.32 0.32 0.30 0.28 0.25 0.24 0.26 0.25 0.23 0.19 0.15 0.17 0.20 0.21 0.21 0.20 0.17 0.18 0.27 0.29 0.28 0.26 0.27 0.27 0.28 0.27 0.26 0.27 0.28 0.29 0.31 0.32 0.34 0.35 0.36 0.38 0.40 0.41 0.43 0.43 0.44 0.45 0.46 0.47 0.49 0.53 0.58 0.62 0.67 0.71 0.74 0.77 0.79 0.76 0.73 0.76 0.78 0.79 0.78 0.74 0.74 0.80 0.81 0.77 0.75 0.78 0.75 0.70 0.68 0.68 0.67 0.65 0.63 0.66 0.64 0.64 0.64 0.64
0.33 0.22 0.20 0.21 0.24 0.26 0.29 0.31 0.33 0.32 0.30 0.26 0.25 0.26 0.24 0.22 0.23 0.22 0.22 0.23 0.21 0.22 0.20 0.20 0.16 0.19 0.28 0.30 0.30 0.29 0.29 0.30 0.29 0.29 0.28 0.28 0.29 0.30 0.32 0.34 0.35 0.36 0.38 0.39 0.40 0.41 0.41 0.43 0.43 0.42 0.42 0.44 0.46 0.49 0.51 0.55 0.59 0.62 0.65 0.70 0.75 0.77 0.79 0.80 0.80 0.80 0.81 0.82 0.82 0.81 0.81 0.83 0.85 0.84 0.80 0.75 0.69 0.68 0.69 0.68 0.65 0.67 0.67 0.67 0.67 0.66
0.16 0.21 0.18 0.15 0.15 0.17 0.21 0.24 0.26 0.29 0.28 0.24 0.23 0.24 0.24 0.25 0.24 0.25 0.24 0.25 0.19 0.19 0.19 0.17 0.14 0.18 0.26 0.29 0.29 0.28 0.28 0.28 0.28 0.30 0.30 0.29 0.30 0.31 0.32 0.34 0.36 0.37 0.38 0.38 0.39 0.40 0.41 0.42 0.42 0.42 0.44 0.44 0.45 0.46 0.47 0.48 0.51 0.54 0.57 0.61 0.63 0.66 0.71 0.75 0.81 0.81 0.79 0.79 0.79 0.79 0.85 0.84 0.84 0.85 0.86 0.82 0.79 0.74 0.73 0.71 0.69 0.69 0.68 0.68 0.68 0.69
0.18 0.18 0.17 0.13 0.11 0.10 0.10 0.11 0.14 0.18 0.22 0.25 0.25 0.24 0.24 0.23 0.22 0.21 0.18 0.20 0.16 0.19 0.19 0.16 0.16 0.21 0.27 0.27 0.27 0.26 0.27 0.27 0.28 0.30 0.32 0.33 0.33 0.33 0.34 0.34 0.35 0.36 0.37 0.39 0.40 0.41 0.41 0.43 0.45 0.44 0.43 0.42 0.43 0.43 0.44 0.45 0.46 0.48 0.51 0.54 0.58 0.61 0.64 0.68 0.73 0.76 0.77 0.80 0.79 0.77 0.79 0.77 0.77 0.78 0.80 0.79 0.83 0.83 0.82 0.80 0.76 0.73 0.71 0.70 0.69 0.70
0.21 0.22 0.19 0.17 0.15 0.14 0.16 0.18 0.21 0.22 0.20 0.18 0.20 0.21 0.22 0.23 0.24 0.22 0.21 0.18 0.16 0.18 0.16 0.17 0.17 0.19 0.21 0.23 0.24 0.25 0.25 0.25 0.26 0.29 0.30 0.32 0.34 0.34 0.35 0.35 0.36 0.38 0.39 0.40 0.40 0.42 0.43 0.44 0.43 0.46 0.47 0.46 0.45 0.44 0.43 0.42 0.43 0.45 0.46 0.48 0.52 0.55 0.59 0.65 0.69 0.72 0.73 0.76 0.78 0.80 0.81 0.79 0.76 0.75 0.78 0.80 0.76 0.80 0.82 0.84 0.83 0.81 0.76 0.73 0.71 0.71
0.24 0.21 0.22 0.21 0.21 0.21 0.23 0.22 0.23 0.23 0.20 0.20 0.19 0.19 0.21 0.21 0.21 0.20 0.18 0.15 0.19 0.16 0.12 0.16 0.18 0.16 0.16 0.21 0.23 0.24 0.25 0.26 0.27 0.28 0.30 0.31 0.33 0.32 0.33 0.34 0.37 0.38 0.39 0.40 0.41 0.40 0.40 0.41 0.42 0.41 0.42 0.42 0.43 0.43 0.43 0.43 0.43 0.42 0.42 0.44 0.47 0.50 0.52 0.57 0.61 0.64 0.67 0.70 0.73 0.76 0.79 0.82 0.81 0.78 0.77 0.82 0.83 0.82 0.81 0.83 0.83 0.83 0.82 0.77 0.72 0.71
0.24 0.21 0.23 0.23 0.23 0.25 0.26 0.25 0.26 0.25 0.23 0.22 0.21 0.20 0.19 0.20 0.20 0.17 0.17 0.18 0.18 0.15 0.12 0.15 0.17 0.15 0.17 0.19 0.21 0.23 0.25 0.26 0.27 0.29 0.31 0.33 0.33 0.34 0.34 0.33 0.34 0.36 0.37 0.38 0.38 0.39 0.38 0.37 0.38 0.38 0.38 0.39 0.40 0.39 0.39 0.40 0.40 0.40 0.40 0.40 0.41 0.42 0.44 0.49 0.54 0.57 0.60 0.64 0.64 0.67 0.75 0.78 0.80 0.82 0.83 0.82 0.81 0.84 0.78 0.76 0.80 0.84 0.85 0.79 0.73 0.73
0.27 0.23 0.25 0.26 0.23 0.23 0.24 0.26 0.27 0.25 0.24 0.24 0.23 0.23 0.22 0.21 0.20 0.20 0.19 0.20 0.19 0.17 0.17 0.18 0.19 0.18 0.19 0.21 0.22 0.24 0.26 0.26 0.28 0.32 0.33 0.32 0.30 0.32 0.32 0.31 0.32 0.32 0.33 0.33 0.34 0.36 0.37 0.37 0.37 0.37 0.37 0.37 0.37 0.37 0.38 0.38 0.38 0.39 0.38 0.36 0.37 0.38 0.40 0.42 0.43 0.47 0.51 0.54 0.60 0.65 0.69 0.71 0.75 0.78 0.81 0.80 0.80 0.80 0.79 0.78 0.79 0.83 0.86 0.84 0.79 0.76
0.25 0.21 0.27 0.24 0.21 0.20 0.23 0.25 0.26 0.25 0.24 0.22 0.23 0.25 0.25 0.24 0.23 0.23 0.22 0.21 0.22 0.20 0.20 0.20 0.19 0.18 0.23 0.26 0.25 0.28 0.29 0.30 0.30 0.27 0.27 0.28 0.29 0.30 0.30 0.30 0.31 0.31 0.31 0.32 0.33 0.33 0.34 0.35 0.35 0.36 0.36 0.37 0.37 0.37 0.37 0.37 0.37 0.38 0.38 0.37 0.36 0.36 0.39 0.40 0.39 0.42 0.48 0.49 0.54 0.60 0.67 0.69 0.69 0.72 0.74 0.77 0.80 0.82 0.78 0.78 0.79 0.80 0.83 0.82 0.81 0.79
0.25 0.21 0.24 0.21 0.18 0.16 0.20 0.21 0.22 0.24 0.23 0.22 0.21 0.23 0.23 0.23 0.21 0.21 0.20 0.21 0.20 0.18 0.19 0.19 0.18 0.17 0.21 0.26 0.27 0.29 0.29 0.28 0.27 0.27 0.27 0.28 0.29 0.30 0.29 0.29 0.30 0.31 0.31 0.32 0.33 0.33 0.33 0.33 0.34 0.34 0.35 0.36 0.36 0.36 0.37 0.37 0.37 0.36 0.35 0.36 0.35 0.36 0.37 0.37 0.37 0.38 0.42 0.49 0.53 0.56 0.58 0.62 0.67 0.69 0.70 0.73 0.75 0.76 0.76 0.76 0.75 0.76 0.78 0.78 0.76 0.77
0.21 0.20 0.18 0.18 0.16 0.14 0.18 0.19 0.18 0.20 0.19 0.16 0.16 0.21 0.23 0.23 0.23 0.24 0.24 0.24 0.23 0.23 0.20 0.17 0.16 0.20 0.22 0.24 0.24 0.26 0.27 0.28 0.27 0.26 0.27 0.28 0.29 0.30 0.29 0.29 0.29 0.30 0.30 0.31 0.31 0.32 0.33 0.33 0.33 0.33 0.34 0.35 0.35 0.35 0.36 0.37 0.36 0.33 0.33 0.32 0.33 0.35 0.34 0.35 0.36 0.37 0.38 0.43 0.49 0.54 0.56 0.58 0.60 0.63 0.66 0.68 0.70 0.74 0.77 0.79 0.82 0.79 0.80 0.78 0.79 0.80
0.21 0.20 0.17 0.19 0.14 0.13 0.17 0.17 0.19 0.16 0.11 0.10 0.19 0.22 0.22 0.20 0.21 0.21 0.21 0.23 0.25 0.26 0.22 0.22 0.21 0.24 0.25 0.25 0.24 0.26 0.26 0.27 0.28 0.30 0.32 0.30 0.30 0.31 0.31 0.31 0.30 0.30 0.30 0.29 0.30 0.29 0.30 0.31 0.31 0.32 0.32 0.32 0.33 0.34 0.35 0.35 0.34 0.34 0.35 0.34 0.34 0.32 0.32 0.32 0.33 0.35 0.37 0.40 0.44 0.51 0.56 0.58 0.59 0.59 0.63 0.67 0.69 0.71 0.73 0.76 0.78 0.80 0.80 0.82 0.79 0.78
0.19 0.19 0.18 0.20 0.15 0.13 0.16 0.17 0.14 0.10 0.10 0.17 0.21 0.24 0.24 0.23 0.24 0.22 0.22 0.24 0.25 0.25 0.25 0.24 0.25 0.26 0.28 0.30 0.31 0.31 0.31 0.33 0.33 0.32 0.31 0.33 0.32 0.32 0.32 0.29 0.28 0.27 0.27 0.27 0.27 0.28 0.28 0.28 0.29 0.29 0.29 0.29 0.31 0.32 0.33 0.32 0.33 0.32 0.32 0.33 0.32 0.32 0.31 0.31 0.31 0.33 0.35 0.37 0.41 0.47 0.51 0.55 0.58 0.59 0.60 0.62 0.64 0.67 0.69 0.69 0.71 0.72 0.75 0.78 0.78 0.75
0.19 0.19 0.19 0.18 0.18 0.18 0.15 0.14 0.10 0.09 0.16 0.20 0.22 0.24 0.27 0.25 0.24 0.23 0.21 0.23 0.26 0.26 0.26 0.25 0.29 0.32 0.33 0.33 0.33 0.34 0.34 0.34 0.34 0.33 0.32 0.33 0.35 0.35 0.32 0.28 0.27 0.27 0.26 0.27 0.28 0.28 0.29 0.29 0.29 0.29 0.29 0.31 0.31 0.31 0.32 0.31 0.32 0.30 0.29 0.30 0.30 0.30 0.30 0.30 0.30 0.31 0.34 0.36 0.38 0.42 0.47 0.52 0.55 0.57 0.60 0.60 0.60 0.62 0.65 0.67 0.73 0.75 0.78 0.80 0.81 0.77
0.22 0.21 0.19 0.15 0.19 0.13 0.13 0.13 0.12 0.17 0.16 0.17 0.18 0.22 0.23 0.19 0.21 0.19 0.15 0.21 0.27 0.32 0.30 0.29 0.32 0.32 0.33 0.33 0.33 0.34 0.35 0.34 0.29 0.28 0.32 0.33 0.35 0.38 0.35 0.31 0.29 0.29 0.29 0.30 0.31 0.31 0.32 0.32 0.32 0.32 0.33 0.32 0.32 0.32 0.31 0.31 0.31 0.29 0.28 0.27 0.27 0.28 0.28 0.29 0.29 0.29 0.32 0.36 0.38 0.40 0.43 0.48 0.52 0.54 0.56 0.58 0.59 0.61 0.64 0.67 0.66 0.66 0.73 0.72 0.70 0.69
0.25 0.19 0.21 0.16 0.16 0.18 0.14 0.13 0.13 0.13 0.11 0.14 0.22 0.29 0.33 0.32 0.31 0.30 0.22 0.20 0.30 0.32 0.32 0.30 0.28 0.30 0.31 0.31 0.32 0.32 0.34 0.27 0.23 0.25 0.28 0.30 0.32 0.34 0.36 0.36 0.35 0.34 0.33 0.33 0.34 0.34 0.34 0.34 0.35 0.35 0.35 0.33 0.33 0.33 0.32 0.31 0.30 0.29 0.27 0.26 0.27 0.26 0.25 0.27 0.27 0.29 0.32 0.34 0.38 0.41 0.44 0.47 0.50 0.53 0.56 0.59 0.61 0.62 0.62 0.65 0.70 0.76 0.77 0.69 0.65 0.64
0.24 0.24 0.23 0.19 0.16 0.17 0.16 0.13 0.12 0.11 0.13 0.22 0.26 0.30 0.34 0.35 0.34 0.34 0.23 0.20 0.28 0.30 0.32 0.32 0.30 0.30 0.31 0.31 0.32 0.33 0.28 0.22 0.22 0.25 0.29 0.31 0.32 0.33 0.33 0.34 0.35 0.35 0.35 0.35 0.35 0.34 0.35 0.36 0.36 0.36 0.36 0.35 0.32 0.32 0.32 0.31 0.30 0.28 0.26 0.27 0.27 0.27 0.25 0.25 0.27 0.30 0.31 0.34 0.40 0.44 0.47 0.48 0.49 0.54 0.59 0.61 0.62 0.63 0.61 0.62 0.69 0.74 0.71 0.66 0.64 0.64
0.20 0.20 0.20 0.17 0.16 0.17 0.16 0.14 0.13 0.16 0.16 0.26 0.30 0.32 0.34 0.36 0.37 0.30 0.17 0.17 0.28 0.31 0.32 0.34 0.31 0.32 0.33 0.34 0.35 0.32 0.28 0.23 0.23 0.28 0.33 0.34 0.35 0.36 0.36 0.35 0.35 0.35 0.36 0.37 0.38 0.38 0.38 0.38 0.36 0.35 0.34 0.33 0.32 0.34 0.33 0.32 0.30 0.28 0.27 0.27 0.28 0.26 0.25 0.25 0.27 0.31 0.36 0.38 0.42 0.45 0.48 0.50 0.49 0.55 0.62 0.63 0.65 0.64 0.65 0.67 0.66 0.61 0.60 0.62 0.62 0.60
0.16 0.16 0.17 0.14 0.16 0.17 0.17 0.16 0.18 0.19 0.27 0.31 0.31 0.33 0.34 0.35 0.32 0.21 0.16 0.23 0.32 0.32 0.34 0.35 0.34 0.34 0.34 0.33 0.35 0.29 0.31 0.32 0.32 0.35 0.37 0.38 0.37 0.37 0.38 0.38 0.37 0.37 0.36 0.37 0.37 0.39 0.38 0.37 0.37 0.35 0.35 0.35 0.35 0.35 0.34 0.33 0.30 0.28 0.28 0.28 0.28 0.26 0.26 0.29 0.31 0.33 0.37 0.41 0.45 0.47 0.48 0.51 0.54 0.60 0.64 0.63 0.64 0.66 0.66 0.61 0.57 0.58 0.59 0.61 0.66 0.64
0.16 0.17 0.16 0.17 0.14 0.14 0.16 0.15 0.16 0.19 0.29 0.33 0.34 0.34 0.34 0.29 0.20 0.19 0.28 0.34 0.34 0.33 0.36 0.36 0.34 0.34 0.34 0.33 0.33 0.32 0.32 0.34 0.36 0.37 0.37 0.36 0.36 0.36 0.36 0.37 0.37 0.37 0.38 0.38 0.38 0.38 0.37 0.37 0.36 0.36 0.36 0.37 0.37 0.36 0.35 0.34 0.31 0.30 0.30 0.29 0.27 0.27 0.30 0.34 0.35 0.36 0.38 0.42 0.47 0.48 0.49 0.52 0.59 0.63 0.63 0.65 0.65 0.62 0.56 0.55 0.59 0.61 0.63 0.64 0.59 0.56
0.17 0.14 0.13 0.14 0.16 0.16 0.15 0.13 0.13 0.11 0.26 0.34 0.33 0.30 0.31 0.22 0.23 0.29 0.30 0.31 0.32 0.33 0.32 0.32 0.33 0.33 0.33 0.31 0.32 0.32 0.33 0.34 0.34 0.35 0.35 0.34 0.33 0.32 0.33 0.34 0.34 0.34 0.34 0.34 0.35 0.37 0.37 0.35 0.35 0.35 0.35 0.36 0.36 0.36 0.36 0.35 0.31 0.30 0.31 0.30 0.28 0.32 0.36 0.36 0.38 0.39 0.40 0.43 0.47 0.49 0.48 0.52 0.59 0.63 0.66 0.66 0.66 0.63 0.64 0.63 0.61 0.57 0.54 0.53 0.51 0.46
0.21 0.14 0.13 0.15 0.19 0.13 0.13 0.11 0.12 0.19 0.25 0.33 0.28 0.22 0.27 0.28 0.30 0.31 0.30 0.28 0.32 0.32 0.30 0.30 0.31 0.32 0.33 0.32 0.31 0.31 0.32 0.32 0.32 0.32 0.31 0.31 0.31 0.32 0.32 0.33 0.33 0.33 0.33 0.34 0.35 0.35 0.36 0.35 0.34 0.35 0.35 0.36 0.36 0.36 0.36 0.36 0.34 0.33 0.32 0.30 0.33 0.38 0.38 0.40 0.40 0.41 0.41 0.44 0.48 0.49 0.48 0.52 0.57 0.60 0.66 0.68 0.66 0.66 0.62 0.57 0.57 0.55 0.52 0.48 0.44 0.41
0.21 0.18 0.20 0.16 0.20 0.16 0.14 0.16 0.21 0.24 0.25 0.27 0.29 0.28 0.28 0.29 0.30 0.30 0.30 0.29 0.29 0.30 0.32 0.30 0.29 0.31 0.32 0.32 0.31 0.31 0.30 0.30 0.30 0.30 0.29 0.29 0.29 0.29 0.29 0.30 0.30 0.30 0.30 0.30 0.31 0.33 0.34 0.32 0.31 0.31 0.32 0.33 0.34 0.35 0.37 0.39 0.38 0.36 0.34 0.34 0.39 0.40 0.40 0.41 0.42 0.42 0.42 0.44 0.47 0.48 0.50 0.53 0.53 0.59 0.59 0.62 0.67 0.64 0.55 0.52 0.54 0.49 0.47 0.44 0.42 0.40
0.21 0.22 0.22 0.19 0.16 0.21 0.22 0.22 0.23 0.22 0.23 0.25 0.27 0.28 0.26 0.26 0.27 0.28 0.29 0.30 0.32 0.32 0.32 0.30 0.30 0.30 0.30 0.31 0.29 0.28 0.28 0.28 0.28 0.28 0.29 0.29 0.29 0.30 0.31 0.30 0.30 0.30 0.30 0.30 0.29 0.30 0.31 0.31 0.31 0.30 0.29 0.29 0.32 0.35 0.38 0.41 0.43 0.39 0.37 0.41 0.42 0.43 0.45 0.45 0.44 0.43 0.44 0.47 0.50 0.52 0.52 0.51 0.56 0.58 0.63 0.65 0.63 0.55 0.54 0.52 0.49 0.47 0.46 0.46 0.44 0.42
0.20 0.21 0.20 0.16 0.20 0.17 0.13 0.20 0.19 0.21 0.23 0.23 0.23 0.25 0.26 0.27 0.26 0.28 0.29 0.30 0.30 0.30 0.30 0.30 0.29 0.28 0.29 0.30 0.29 0.28 0.28 0.29 0.29 0.29 0.29 0.29 0.29 0.29 0.29 0.29 0.28 0.28 0.28 0.27 0.28 0.30 0.29 0.29 0.29 0.29 0.29 0.28 0.31 0.35 0.39 0.44 0.46 0.45 0.46 0.46 0.48 0.49 0.48 0.46 0.46 0.46 0.48 0.50 0.53 0.53 0.52 0.53 0.52 0.57 0.60 0.60 0.56 0.52 0.49 0.47 0.47 0.47 0.46 0.44 0.42 0.41
0.15 0.26 0.19 0.18 0.17 0.15 0.14 0.18 0.21 0.22 0.22 0.23 0.24 0.23 0.23 0.24 0.25 0.27 0.27 0.28 0.29 0.29 0.29 0.29 0.29 0.28 0.28 0.27 0.27 0.27 0.26 0.28 0.28 0.28 0.28 0.29 0.29 0.29 0.29 0.28 0.28 0.28 0.29 0.30 0.30 0.31 0.31 0.31 0.31 0.31 0.30 0.30 0.33 0.38 0.42 0.46 0.47 0.49 0.51 0.50 0.50 0.50 0.51 0.49 0.48 0.50 0.51 0.53 0.54 0.53 0.52 0.52 0.51 0.49 0.52 0.51 0.47 0.48 0.50 0.50 0.49 0.47 0.44 0.42 0.41 0.37
0.20 0.23 0.16 0.19 0.17 0.20 0.22 0.22 0.23 0.24 0.23 0.22 0.23 0.24 0.25 0.25 0.26 0.26 0.27 0.27 0.28 0.27 0.27 0.28 0.29 0.29 0.28 0.27 0.28 0.28 0.27 0.28 0.29 0.29 0.28 0.28 0.28 0.28 0.28 0.29 0.30 0.30 0.30 0.30 0.31 0.33 0.33 0.33 0.32 0.32 0.32 0.34 0.38 0.43 0.47 0.50 0.52 0.53 0.53 0.54 0.55 0.55 0.53 0.52 0.53 0.55 0.54 0.55 0.55 0.52 0.50 0.47 0.50 0.50 0.47 0.49 0.51 0.52 0.50 0.49 0.48 0.44 0.42 0.41 0.40 0.38
0.20 0.16 0.20 0.20 0.17 0.16 0.16 0.18 0.21 0.16 0.16 0.20 0.21 0.23 0.25 0.27 0.27 0.26 0.27 0.27 0.27 0.27 0.28 0.28 0.28 0.30 0.30 0.30 0.30 0.30 0.29 0.29 0.29 0.30 0.29 0.29 0.30 0.30 0.30 0.31 0.31 0.32 0.31 0.33 0.35 0.36 0.35 0.34 0.34 0.35 0.37 0.40 0.45 0.49 0.53 0.55 0.55 0.57 0.60 0.61 0.60 0.59 0.56 0.57 0.58 0.56 0.54 0.54 0.54 0.52 0.47 0.46 0.45 0.47 0.50 0.50 0.50 0.49 0.48 0.48 0.47 0.43 0.39 0.39 0.40 0.39
0.17 0.18 0.19 0.17 0.16 0.15 0.20 0.22 0.23 0.23 0.22 0.23 0.23 0.24 0.26 0.27 0.27 0.25 0.25 0.26 0.28 0.29 0.30 0.29 0.27 0.27 0.28 0.29 0.32 0.31 0.31 0.31 0.30 0.32 0.31 0.30 0.31 0.32 0.33 0.33 0.32 0.32 0.32 0.34 0.34 0.33 0.34 0.37 0.41 0.44 0.46 0.48 0.52 0.56 0.59 0.61 0.64 0.64 0.63 0.65 0.66 0.64 0.62 0.60 0.58 0.56 0.53 0.53 0.50 0.46 0.40 0.42 0.48 0.51 0.52 0.49 0.47 0.45 0.43 0.43 0.43 0.43 0.40 0.38 0.37 0.38
Wind_Speed
8 9 10 11 12 12 12 11 11 12 11 10 9 9 10 11 12 13 12 13 12 11 11 12 14 15 15 16 16 15 14 15 15 14 13 13 14 16 17 18 18 18 18 17 17 18 18 18 17 16 16 15 15 14 14 13 13 13 12 11 11 11 11 11 11 11 11 11 11 11 11 11 11 10 10 11 11 11 11 12 12 13 14 14 15 15
9 10 12 13 13 13 12 11 10 10 10 10 10 10 10 11 13 13 13 13 13 12 13 13 12 15 16 15 15 14 14 15 16 16 15 15 15 15 17 18 18 18 17 17 17 18 18 18 18 17 17 17 16 15 15 14 14 14 13 12 12 11 11 11 11 11 11 11 11 11 11 11 10 10 10 10 10 10 11 11 11 12 13 13 14 14
10 12 14 14 12 10 10 10 10 10 10 11 11 11 11 12 13 14 13 14 13 12 14 13 12 14 15 15 15 14 14 15 16 17 17 16 16 16 17 18 18 18 18 18 18 19 19 19 19 18 18 18 17 16 16 16 15 15 14 13 12 12 12 11 11 11 10 10 10 10 10 10 10 10 10 10 10 10 10 10 11 11 11 12 12 13
11 13 13 11 10 10 10 11 10 10 11 11 11 11 12 13 12 13 14 14 13 12 13 13 13 15 15 14 14 14 15 15 16 17 17 17 17 18 19 19 19 20 20 19 19 19 20 20 20 20 19 18 18 17 17 17 16 16 15 14 13 13 12 11 11 10 10 10 10 10 10 10 10 10 10 10 10 10 10 10 10 10 11 11 11 11
13 13 12 10 10 11 12 11 11 12 13 13 13 12 13 13 13 14 15 15 14 13 13 12 14 16 15 14 15 15 14 15 15 16 16 17 18 18 19 20 21 22 21 21 21 20 21 21 22 21 19 19 19 19 18 18 17 16 15 14 14 13 12 11 11 10 10 10 10 10 9 9 10 10 10 9 10 10 9 9 9 9 10 10 10 10
13 13 11 11 11 11 12 13 13 12 13 14 14 14 13 13 14 14 13 13 13 14 14 13 14 16 15 15 16 15 14 15 15 15 16 17 18 19 20 21 22 23 22 22 23 22 22 23 23 21 20 21 20 20 19 18 18 17 16 15 14 13 12 11 11 11 11 11 11 11 10 10 10 10 10 9 9 9 8 8 9 9 9 9 9 9
12 12 10 10 11 11 11 13 14 12 12 13 14 14 12 12 12 12 13 12 13 15 15 13 14 16 16 16 17 15 15 17 17 17 18 18 19 20 22 23 23 24 23 23 23 23 23 23 23 22 22 22 21 20 19 18 17 17 16 15 14 13 13 12 11 11 12 12 12 12 11 10 10 10 10 10 9 9 9 8 8 8 8 8 8 8
12 12 10 10 10 10 11 13 14 12 11 13 14 12 11 12 13 13 12 13 14 15 15 14 14 16 17 17 17 16 16 18 18 19 20 20 20 21 23 24 24 25 24 24 24 24 24 24 23 23 23 23 22 20 19 18 17 17 16 15 14 14 13 12 12 12 12 12 12 12 12 11 11 11 10 10 10 9 9 9 9 9 8 8 8 8
12 13 13 12 10 11 12 13 13 12 11 14 13 11 12 12 13 13 12 12 14 14 15 15 14 15 17 17 16 16 16 18 19 20 20 21 21 22 24 25 25 25 25 25 25 24 24 24 24 24 24 24 22 20 19 19 17 16 15 15 14 14 13 13 12 12 12 12 12 12 12 12 12 11 11 10 10 10 10 10 10 10 9 9 8 8
11 14 15 13 11 13 13 12 12 12 12 13 11 10 11 12 12 12 12 13 13 13 15 16 14 14 16 16 15 13 14 16 18 18 18 19 20 22 23 23 24 24 24 24 23 23 23 24 24 24 23 23 21 20 20 19 18 16 15 15 15 14 13 13 13 12 12 12 12 12 12 12 12 12 11 11 11 11 11 11 11 10 10 10 9 9
12 12 13 13 13 13 12 11 12 12 11 11 10 10 11 12 13 13 13 12 11 13 15 16 14 13 14 15 13 12 12 14 16 16 16 17 18 19 19 19 20 21 21 21 21 21 22 22 22 22 22 22 20 20 20 20 19 17 16 15 15 15 14 14 14 13 12 12 12 12 12 13 13 12 12 11 11 11 11 11 11 11 11 10 10 10
11 11 12 13 13 12 10 10 11 11 11 11 11 11 12 13 12 12 13 11 11 14 15 14 12 11 13 14 13 14 14 14 15 15 16 16 16 16 15 15 16 17 18 18 19 20 19 19 20 21 22 21 19 20 21 20 20 18 17 16 16 16 16 15 14 14 13 12 13 13 13 13 13 13 12 12 12 11 11 11 11 11 11 11 11 11
11 11 11 11 12 11 10 11 12 12 11 11 12 11 11 12 11 11 13 12 12 14 13 11 11 11 13 14 14 15 15 15 14 14 15 15 15 14 12 11 11 12 14 16 18 18 18 18 19 21 22 21 20 20 20 20 20 19 18 17 17 17 17 16 16 15 14 13 13 13 13 14 13 13 13 12 12 12 11 11 11 11 11 11 11 11
11 11 10 10 11 11 11 11 12 13 12 12 13 12 11 10 10 12 13 11 13 14 12 11 11 12 13 13 13 14 15 15 14 14 14 14 15 13 10 8 8 8 11 15 17 18 18 18 19 20 21 21 21 20 20 20 20 20 19 18 18 18 17 17 17 16 15 14 14 14 13 14 14 14 13 12 12 11 11 11 11 11 11 11 11 11
10 11 10 9 10 10 11 12 12 12 12 13 13 12 12 12 11 13 13 11 12 12 11 12 12 12 12 12 13 14 15 14 13 14 14 13 14 13 9 7 7 7 9 13 16 18 18 18 18 19 20 20 21 20 20 20 20 20 20 19 19 19 19 19 18 17 16 15 15 14 14 14 14 15 14 13 13 12 12 11 11 11 11 11 11 11
9 11 11 10 10 10 10 11 10 10 11 13 12 11 13 14 12 12 12 12 12 12 12 13 13 13 12 12 13 14 15 14 13 13 12 12 12 11 9 8 7 7 8 10 13 16 17 17 17 17 18 19 19 19 19 19 19 21 21 21 20 20 20 20 19 18 18 17 16 16 16 15 15 15 15 15 14 13 13 12 12 12 12 12 12 12
10 12 12 11 10 10 11 11 10 11 12 11 11 12 14 13 11 11 12 12 10 12 14 14 13 13 13 12 12 12 14 14 14 14 13 13 12 10 10 10 8 7 6 7 10 13 15 16 17 17 17 18 18 18 19 19 20 20 21 21 21 21 20 20 20 20 19 19 18 18 17 17 17 17 17 17 16 15 14 14 13 12 12 12 12 12
11 13 14 11 11 12 12 11 11 11 11 11 12 14 13 12 11 11 11 11 10 12 14 14 13 13 13 13 13 13 13 14 15 15 14 14 12 10 11 11 9 8 7 7 8 10 12 13 15 17 18 19 19 18 18 19 20 20 21 21 22 22 22 22 22 22 21 21 21 20 19 19 19 18 18 18 18 17 16 16 15 14 14 13 13 13
12 14 15 13 12 14 13 11 12 13 12 12 14 14 13 12 13 12 11 12 12 13 14 14 14 14 14 15 15 14 14 15 16 15 14 14 12 11 11 11 10 10 9 9 8 9 10 11 12 15 17 18 19 19 19 20 20 21 21 22 23 24 24 23 24 24 22 21 21 22 21 21 20 20 20 19 19 19 18 18 17 17 16 15 14 14
12 13 14 14 13 14 13 13 14 15 14 14 14 14 14 14 14 14 13 13 13 13 14 14 14 13 15 15 14 15 16 16 15 14 14 14 13 12 11 10 9 9 9 9 9 9 9 10 10 12 14 16 17 17 19 20 21 22 22 23 23 24 25 25 25 25 25 24 23 23 23 23 23 22 22 21 21 20 20 20 19 19 18 18 17 16
13 13 15 16 15 14 14 15 16 15 15 14 14 15 15 14 14 14 14 14 13 13 14 14 15 16 16 15 15 16 17 17 16 15 15 15 14 12 11 9 9 8 8 9 9 9 9 9 9 10 12 15 15 16 17 18 20 21 22 23 24 24 25 26 26 27 27 27 26 25 25 26 26 25 24 24 23 22 22 21 21 20 20 19 19 19
15 15 16 17 16 15 16 17 16 15 15 15 15 15 15 14 14 14 15 16 15 15 15 15 17 18 18 17 17 17 18 18 17 17 16 16 15 14 12 11 11 10 10 10 10 10 10 10 10 10 10 12 14 15 16 17 19 20 21 22 23 24 25 26 27 28 28 28 28 27 27 27 28 27 26 26 25 25 24 24 23 22 21 21 21 20
16 15 16 18 18 18 19 18 16 16 16 16 16 17 16 16 15 15 16 17 16 17 16 16 18 20 20 19 19 19 19 18 17 17 17 16 16 15 14 13 13 12 12 12 12 12 12 12 11 11 11 12 13 14 14 16 17 19 20 22 23 24 25 26 27 28 28 29 30 29 29 28 28 28 28 28 27 27 26 26 25 25 24 23 23 22
17 17 17 19 19 20 20 19 17 17 16 16 18 18 18 19 18 18 19 19 19 20 18 17 19 21 21 21 20 21 20 19 18 18 17 17 16 16 15 15 14 14 13 14 14 14 14 14 13 13 13 13 14 14 15 15 16 17 18 20 22 23 25 26 26 27 28 30 30 30 30 29 28 29 29 30 29 29 29 28 27 26 26 25 24 24
18 18 17 18 18 19 19 18 18 19 18 18 20 20 19 19 19 19 20 19 21 23 21 21 22 23 22 21 21 21 20 19 18 19 18 18 18 17 17 16 16 16 16 16 16 16 15 15 15 15 15 16 16 16 16 16 17 17 18 18 20 22 23 25 26 27 28 29 30 30 31 31 31 31 31 31 31 31 30 29 29 28 28 27 26 25
19 19 18 17 18 19 19 19 19 19 19 19 20 20 19 19 19 20 20 20 22 23 23 23 24 24 24 23 23 23 21 19 19 19 19 20 20 19 19 19 19 19 19 19 18 18 18 17 17 17 17 17 18 18 19 19 20 20 20 20 20 21 23 24 25 26 27 29 31 32 33 33 33 33 33 33 32 33 32 31 30 30 29 28 28 27
19 20 20 20 21 21 21 21 21 20 20 21 20 21 21 20 20 20 20 21 23 23 24 25 24 23 25 25 25 24 23 22 22 21 21 22 22 22 21 21 22 21 21 22 21 21 21 20 20 20 20 20 21 21 22 22 22 22 22 22 23 23 23 24 25 27 28 29 30 32 34 34 34 34 35 34 33 33 34 33 32 31 30 29 29 28
18 21 21 21 22 23 22 23 22 20 22 22 22 23 24 23 21 21 23 24 23 22 26 27 24 24 26 26 26 26 26 26 25 25 24 24 24 24 23 23 23 23 23 23 23 23 23 23 23 24 24 24 24 25 25 25 25 24 25 25 25 25 25 25 26 28 28 29 30 31 33 34 35 35 35 36 35 34 34 35 34 33 32 31 30 29
18 21 21 21 23 24 23 23 22 21 23 23 22 24 25 24 23 24 25 25 23 24 28 27 24 26 27 26 27 28 27 27 27 26 26 26 25 25 25 25 25 25 25 25 25 25 25 26 26 27 27 27 28 28 28 28 28 28 28 27 27 28 28 28 28 29 30 30 31 31 32 33 34 35 35 36 36 36 35 35 35 34 33 32 31 30
20 22 22 21 23 24 23 23 23 23 24 25 25 25 25 25 25 25 26 25 24 27 28 26 26 28 27 26 27 27 26 27 28 27 27 26 26 26 26 26 26 26 27 27 27 27 28 28 29 29 29 29 29 30 30 31 31 31 31 31 30 30 30 30 30 30 31 32 32 32 32 32 33 34 35 35 36 37 37 37 37 36 35 34 33 32
22 23 23 22 24 26 25 24 24 23 24 26 27 26 25 25 26 26 26 25 25 28 28 27 28 30 28 27 27 26 25 26 27 27 27 27 27 27 27 27 27 27 27 28 28 28 29 29 30 30 31 31 31 32 32 32 33 33 33 33 33 33 32 33 33 33 33 33 34 34 34 34 34 34 35 36 37 38 39 38 38 37 36 35 34 33
23 24 23 22 25 27 25 25 26 25 26 28 29 27 26 26 26 27 27 26 26 27 28 28 29 30 28 26 26 25 25 25 26 27 27 26 26 26 26 27 27 27 28 28 29 29 29 30 30 31 32 32 33 33 33 33 34 34 34 34 34 34 34 34 34 34 34 34 35 35 35 35 35 35 36 37 38 39 39 38 38 37 36 35 35 34
22 24 24 23 25 27 25 25 26 25 26 30 29 27 27 27 28 28 27 27 26 26 26 28 28 28 26 25 25 25 25 25 26 26 26 26 26 26 26 26 26 27 28 28 29 29 30 31 31 32 33 33 34 34 34 34 34 35 35 35 35 35 35 35 35 35 36 35 35 36 35 35 36 36 37 37 37 38 37 36 36 35 34 35 35 35
22 23 24 23 24 26 25 23 23 24 26 28 26 25 26 27 28 28 28 27 26 25 25 26 27 26 25 25 24 24 25 25 25 26 26 26 26 26 26 26 27 27 28 28 29 29 30 31 32 32 33 33 34 34 34 35 35 36 36 36 36 36 36 37 37 37 37 36 36 36 36 36 36 36 36 36 37 37 37 37 36 35 34 34 34 34
22 22 22 22 23 25 24 21 22 25 26 26 25 24 24 24 24 25 25 24 24 25 24 24 25 25 24 24 23 23 24 25 25 26 27 27 27 27 27 27 27 28 28 28 29 29 30 30 31 32 32 33 33 33 34 35 35 36 37 37 37 37 37 37 38 38 38 37 37 37 37 37 37 36 36 36 36 37 37 37 36 34 34 33 32 32
21 20 21 21 21 22 21 20 22 25 25 24 23 23 23 22 22 22 23 23 23 24 23 23 24 25 24 24 23 24 25 25 26 27 27 28 28 28 27 28 28 28 28 29 29 30 30 31 31 32 33 33 33 33 34 35 36 37 37 38 38 38 38 38 38 38 38 38 37 37 37 37 37 37 37 37 37 37 36 36 34 33 33 32 31 31
20 19 20 21 21 20 21 22 23 25 25 24 23 23 23 23 23 22 22 22 23 23 22 21 23 24 24 24 25 25 25 25 25 26 27 27 27 28 28 28 28 29 29 29 30 30 31 31 32 33 33 34 34 34 35 36 36 37 38 38 38 38 38 38 38 38 38 38 38 37 37 37 37 37 37 37 37 37 36 35 34 34 34 33 32 31
19 19 19 20 20 20 20 22 22 22 23 23 23 23 23 23 23 22 20 21 22 23 22 21 22 23 24 24 25 24 24 24 25 26 26 26 27 27 28 29 29 30 30 31 31 32 32 32 33 33 34 34 35 35 36 37 38 38 39 39 39 39 39 38 38 38 37 37 37 37 37 37 37 37 36 36 37 36 35 34 34 33 32 31 30 30
19 20 19 19 20 20 20 21 21 21 22 22 22 23 23 22 22 21 20 21 23 23 22 22 22 23 24 24 23 23 23 24 25 26 26 26 27 27 28 29 30 31 31 32 32 33 33 33 34 34 34 35 36 36 37 38 38 39 40 40 40 40 39 39 38 38 37 36 36 35 36 36 36 36 36 36 36 35 34 32 32 32 31 30 30 30
19 20 19 20 21 21 20 21 22 22 22 21 22 23 23 21 20 19 20 22 23 23 22 21 22 23 23 23 22 22 23 24 25 26 26 26 27 28 28 29 30 31 31 32 32 33 33 34 34 35 35 36 37 37 38 38 39 40 40 40 40 40 40 39 38 38 37 36 35 34 35 35 34 34 34 34 34 33 32 31 31 31 31 31 30 30
19 20 20 20 20 20 21 22 22 22 22 22 22 23 22 20 19 19 20 21 22 22 22 21 22 23 22 22 22 23 24 26 26 27 27 27 28 29 29 30 31 31 32 32 33 33 34 34 35 36 36 37 38 38 38 39 39 40 40 40 40 40 39 38 38 37 37 36 35 34 34 34 34 34 33 32 32 31 31 30 30 30 29 29 28 28
18 19 19 19 19 20 21 21 22 23 22 22 22 22 20 19 19 21 21 22 22 23 23 22 23 23 23 23 24 25 27 27 28 28 28 29 30 30 31 32 32 32 33 33 34 34 35 35 36 37 37 38 38 39 39 39 40 40 40 40 40 40 38 37 37 36 36 36 35 34 34 34 34 34 33 33 32 31 30 29 28 28 27 27 26 26
18 19 20 20 20 20 20 21 21 22 21 20 20 21 19 19 21 23 24 24 24 24 24 24 24 24 25 26 27 28 28 29 29 29 30 30 31 32 32 33 33 34 34 34 35 35 36 37 38 38 39 39 39 39 39 40 40 40 40 40 40 39 38 37 37 36 36 36 35 34 33 34 34 33 32 31 30 29 28 27 26 26 27 27 27 26
20 20 21 21 20 20 20 20 20 20 20 20 21 22 22 23 25 25 26 26 26 25 25 26 26 27 27 28 29 29 30 30 31 31 32 32 33 33 34 34 35 36 36 36 37 38 38 39 40 40 40 40 40 40 40 41 41 40 40 40 40 38 38 37 37 37 36 36 35 34 33 34 33 32 30 29 28 27 26 26 25 25 26 26 27 26
21 20 21 22 22 21 23 24 24 23 24 24 24 25 26 27 27 27 27 27 27 26 26 26 27 28 29 30 31 32 32 33 34 34 34 35 35 35 36 36 37 38 38 39 40 40 40 41 42 42 42 42 42 42 42 41 41 41 40 40 39 38 37 36 36 36 35 34 34 33 32 32 31 30 30 30 28 26 25 25 24 24 23 24 24 25
22 22 22 23 24 25 26 27 27 27 27 27 27 28 29 29 28 27 27 28 28 28 28 29 30 31 31 32 33 34 35 36 36 36 36 37 37 37 38 38 39 40 40 41 41 41 42 42 42 43 43 43 42 41 41 41 41 41 40 39 37 36 35 34 34 34 33 32 31 30 29 28 28 28 30 30 28 26 25 24 23 21 21 21 21 22
23 23 23 24 25 26 26 26 25 26 27 28 29 29 29 29 29 29 29 29 30 31 32 32 33 34 34 35 36 37 37 37 38 38 38 38 39 39 39 39 40 41 41 41 42 42 42 42 42 42 42 42 41 40 40 40 39 39 37 35 34 34 33 33 32 31 29 28 27 26 26 26 26 27 28 27 26 24 23 21 20 19 18 19 19 19
23 22 23 24 25 26 26 27 28 29 30 30 29 29 29 29 30 31 31 32 32 33 34 34 34 35 35 35 36 37 38 38 38 38 39 39 39 40 39 40 40 41 41 41 41 40 40 40 40 40 40 39 38 37 37 37 36 34 33 32 32 32 32 31 29 27 26 25 24 24 23 24 25 26 25 24 22 20 19 17 17 16 16 17 17 18
23 23 24 24 25 26 27 27 28 29 29 28 28 29 29 30 31 32 32 33 33 34 34 34 34 34 34 35 35 36 37 37 37 38 39 39 39 39 39 39 39 39 39 39 38 38 38 38 38 37 36 35 35 34 34 32 31 30 30 30 30 30 29 28 26 24 23 23 22 21 22 22 23 23 23 21 19 18 16 16 15 15 15 15 16 16
23 24 24 24 26 26 26 26 27 27 28 28 29 30 30 30 31 32 33 33 34 34 34 34 34 34 34 35 35 36 36 37 37 37 38 38 37 37 37 37 37 37 37 37 36 36 35 35 34 33 32 31 30 29 28 27 25 25 26 26 26 27 26 24 23 23 23 23 22 22 22 22 22 22 21 20 18 16 15 14 13 13 14 14 15 14
23 24 24 25 26 27 27 28 29 29 29 30 30 30 30 31 32 33 34 34 33 33 33 33 34 34 34 35 35 35 36 36 37 37 37 36 36 36 36 36 35 34 34 33 33 32 32 31 29 28 27 26 24 23 22 20 19 19 19 19 20 22 22 22 22 23 23 23 23 23 22 22 21 20 19 18 17 15 14 13 13 13 12 12 12 12
Wind_Direction
248 250 251 247 247 248 244 239 236 235 233 234 237 239 240 245 253 256 257 263 260 252 256 255 254 255 253 254 255 255 256 250 247 249 248 248 246 241 238 237 237 238 240 239 237 236 237 240 242 243 244 243 243 241 239 241 244 246 249 255 260 264 266 266 266 268 266 263 261 260 258 257 256 254 254 256 259 260 260 260 260 260 261 261 260 258
253 252 251 245 244 245 242 238 236 237 240 240 236 240 247 247 253 257 258 266 265 256 257 259 260 258 253 255 255 249 249 250 248 247 247 247 247 243 240 240 240 241 243 241 239 238 238 241 243 243 244 243 241 240 240 241 243 246 249 255 261 265 266 266 265 265 266 262 259 258 256 254 255 255 256 258 260 262 262 261 262 262 262 263 262 259
260 255 252 248 243 244 245 240 237 239 242 245 243 244 252 253 257 262 263 268 267 258 259 264 264 261 258 259 258 250 247 249 250 248 246 246 245 245 244 244 242 242 243 242 242 241 240 241 243 244 245 244 241 240 241 242 244 246 249 254 260 264 265 264 263 263 264 261 258 258 256 253 255 256 257 259 261 263 262 263 265 265 265 264 263 261
257 252 248 245 238 240 249 247 241 243 246 247 246 246 253 258 261 263 265 270 269 261 259 260 263 261 260 262 260 256 253 254 255 254 252 250 246 246 246 244 241 241 243 245 245 244 242 242 243 243 244 242 241 241 242 242 243 245 248 251 257 263 264 263 260 260 261 260 258 258 257 255 255 254 255 259 262 263 263 265 267 268 268 266 264 261
253 249 243 243 245 245 249 251 245 243 251 253 247 244 250 256 257 258 264 270 270 267 263 262 267 263 259 262 259 259 263 261 260 260 258 256 253 252 250 246 242 242 244 246 246 245 243 242 242 241 240 240 241 242 241 241 242 244 246 249 255 260 262 261 259 256 257 259 258 257 256 257 257 254 254 257 259 261 262 264 266 269 270 267 264 262
255 253 246 246 253 253 250 252 249 242 250 258 252 245 245 250 256 261 268 272 269 269 268 264 263 261 260 261 257 259 268 267 266 266 260 256 256 256 253 249 246 246 247 247 247 246 244 243 241 239 238 238 240 241 241 239 241 242 244 247 251 256 259 259 257 254 255 257 258 256 254 256 255 251 253 255 255 257 260 263 266 270 270 266 264 263
256 257 253 247 250 253 254 256 253 243 245 255 253 246 245 251 257 262 265 266 264 262 265 261 254 258 264 262 260 264 269 268 269 269 265 260 257 256 255 253 249 248 249 249 248 247 244 241 238 235 235 236 238 239 239 238 239 240 242 245 248 253 256 256 254 253 255 257 258 257 254 255 254 250 253 256 256 257 260 264 267 269 269 264 262 261
254 258 261 253 250 254 256 258 253 242 242 253 251 244 247 253 256 259 261 263 263 262 267 268 258 259 263 261 262 267 269 271 270 269 269 267 264 261 260 257 252 249 249 249 248 246 242 238 233 231 231 233 235 235 234 234 236 237 240 243 246 250 253 251 251 254 255 257 259 256 254 255 255 253 255 257 258 258 260 263 267 269 268 263 259 257
259 256 257 252 254 258 254 253 246 238 247 254 248 244 251 255 257 260 262 265 268 266 267 270 264 262 265 265 267 269 267 270 271 269 270 272 274 272 268 262 255 251 250 249 247 244 240 235 230 229 229 230 232 232 231 231 232 235 238 241 244 247 248 246 247 252 255 257 258 254 252 253 255 256 256 256 258 259 260 263 266 269 268 266 262 258
266 257 253 249 252 255 251 249 241 238 252 253 247 253 261 265 266 266 264 263 267 266 263 266 264 261 267 270 270 269 268 270 271 270 270 275 280 279 273 265 257 252 250 248 245 241 237 231 227 227 227 227 228 229 229 229 231 235 238 240 241 242 244 244 246 250 253 256 256 252 250 250 252 254 254 253 255 258 260 262 264 266 267 267 265 262
275 266 256 251 250 248 246 249 244 243 252 253 254 263 267 271 271 269 266 260 263 267 263 263 261 258 266 269 264 262 267 269 269 270 272 277 282 280 276 269 259 253 247 243 240 238 234 228 224 225 224 224 226 228 229 230 231 235 237 239 239 239 242 244 245 248 250 254 253 249 248 249 250 251 251 251 252 256 259 260 262 263 264 265 265 263
287 277 262 256 251 246 246 252 254 255 255 255 259 261 263 270 272 271 270 262 259 265 265 264 261 256 260 263 263 266 270 270 269 270 274 277 279 279 279 277 267 254 243 236 234 233 230 226 223 222 221 222 226 229 230 231 232 235 237 237 237 238 240 242 244 246 248 250 252 250 248 248 249 250 250 251 252 254 256 259 262 262 262 263 263 262
288 276 271 267 256 245 245 254 261 264 261 256 257 257 259 268 273 271 268 261 257 261 263 263 259 258 259 259 264 272 276 277 274 273 274 274 275 279 282 285 279 259 240 232 230 229 227 226 224 221 219 221 226 230 231 231 232 234 236 236 236 237 238 240 242 244 246 248 250 250 248 248 249 250 250 251 252 254 256 258 260 261 262 262 261 260
289 285 282 271 259 250 243 249 256 259 257 252 250 251 253 259 267 267 265 264 264 263 261 259 260 264 265 262 264 272 277 280 280 278 276 273 274 279 284 285 284 268 245 236 232 230 228 227 225 224 223 224 229 232 233 232 232 233 235 236 237 237 238 239 240 242 244 247 249 250 249 249 249 250 250 251 252 254 256 258 259 260 261 262 262 260
281 283 278 264 261 259 251 248 249 251 254 253 250 250 252 251 254 259 258 257 261 262 260 260 262 260 260 262 265 269 272 276 279 278 277 276 276 280 290 290 281 274 258 245 238 234 232 230 227 226 227 229 233 235 235 234 233 233 234 235 237 238 238 239 240 242 244 246 249 250 249 249 250 250 251 251 252 254 256 258 259 260 260 262 263 261
272 273 273 272 268 263 259 255 250 250 256 258 255 254 256 253 252 258 257 253 256 260 260 260 260 259 260 265 268 268 269 272 278 279 280 284 285 288 296 292 282 275 267 253 244 239 236 233 230 229 230 231 234 235 235 235 234 234 235 237 238 239 239 241 242 245 247 248 250 250 249 249 250 251 251 251 252 254 256 257 260 262 262 262 263 261
275 274 278 282 276 269 266 259 254 253 253 257 256 253 254 253 251 257 262 265 265 260 261 260 260 264 264 262 265 269 270 273 279 282 283 287 291 295 293 285 279 274 270 261 250 242 238 235 232 232 232 233 234 234 234 235 236 237 238 239 241 242 243 244 245 247 249 250 250 251 250 250 250 251 251 251 253 254 256 257 259 262 263 263 263 262
273 275 278 277 271 273 272 263 264 263 254 254 257 255 255 256 258 258 261 272 272 261 264 263 257 257 256 254 262 268 270 274 278 279 281 285 288 290 286 280 273 268 267 267 258 246 242 240 238 236 236 236 236 236 237 237 237 239 240 241 244 245 246 246 246 248 251 251 251 251 251 250 250 251 251 252 254 255 256 257 257 259 261 262 264 264
275 275 278 273 266 272 275 265 266 271 264 259 258 259 259 256 259 261 258 262 264 262 267 269 261 256 252 255 260 261 264 271 275 275 277 280 283 282 280 278 274 270 268 267 264 254 247 245 244 243 241 239 239 239 239 239 239 241 243 244 246 246 247 247 248 248 251 253 253 253 252 251 251 251 252 253 254 256 257 257 257 258 259 261 263 264
280 276 276 274 269 269 271 265 261 265 268 268 266 266 265 258 255 257 256 255 256 259 265 269 268 262 257 256 254 253 259 264 267 271 272 275 279 279 276 275 273 271 270 266 262 257 253 252 252 248 245 243 242 243 243 244 244 244 245 246 247 247 248 249 250 249 250 252 254 254 253 252 252 252 252 253 254 256 257 257 258 258 259 260 262 263
284 276 272 275 275 268 264 262 257 256 260 263 264 264 263 260 257 257 258 257 255 256 259 263 266 264 261 257 251 251 257 259 260 264 267 269 273 273 271 270 267 265 265 263 257 253 253 256 258 254 248 244 244 247 249 249 249 248 247 248 249 249 249 250 251 251 250 250 252 254 254 253 253 252 252 253 254 255 256 257 258 258 259 261 262 263
282 277 272 274 275 268 263 262 258 255 254 254 257 259 257 257 257 258 261 262 260 258 257 258 263 264 261 257 255 257 259 258 259 260 261 263 265 266 266 264 264 263 261 260 257 254 254 256 257 258 256 251 249 252 253 252 254 254 252 252 253 253 252 251 252 252 250 249 251 254 255 254 253 253 252 253 254 255 256 257 257 258 259 260 261 263
278 276 275 273 270 266 265 266 262 259 257 257 260 261 260 260 257 255 258 261 261 262 261 261 265 265 263 261 263 265 263 260 260 259 257 257 258 260 260 259 260 260 260 260 259 257 256 257 256 257 258 258 258 260 260 259 259 258 257 257 257 257 256 255 255 253 251 250 251 253 254 254 253 252 252 253 255 255 256 257 258 258 259 259 260 262
276 276 277 275 273 271 271 270 267 264 262 262 265 264 262 262 260 257 258 258 258 259 260 264 267 265 264 265 267 269 267 262 259 257 256 256 256 257 256 256 256 257 258 259 259 257 256 257 259 259 258 259 260 263 265 266 266 265 263 262 260 260 260 259 259 257 254 252 251 251 253 254 254 253 252 254 255 254 255 256 258 259 260 260 261 261
276 274 275 276 277 276 274 272 271 270 267 264 266 267 263 262 261 261 262 260 259 259 257 260 265 265 265 267 269 269 268 264 261 258 256 256 258 257 257 258 258 258 259 259 259 258 256 256 259 260 261 261 261 262 264 265 267 268 269 268 267 266 265 263 261 258 256 254 253 252 252 253 253 254 253 254 254 254 254 255 257 259 261 261 260 261
274 271 270 269 268 267 267 267 267 268 268 267 267 267 265 261 259 260 261 259 261 262 258 258 264 268 268 269 269 269 269 266 263 261 259 258 258 258 259 261 261 261 262 261 261 260 258 256 257 259 263 264 264 265 266 266 268 269 270 271 272 272 271 267 263 259 257 256 256 255 254 253 253 253 254 255 254 254 253 254 256 258 259 260 260 260
273 272 268 262 262 263 263 265 265 265 266 267 266 266 265 263 260 260 260 259 260 262 262 260 262 267 268 266 266 268 267 265 264 263 262 261 260 260 261 263 263 263 263 263 262 262 262 260 259 261 265 266 267 268 269 269 269 270 271 272 273 275 275 272 267 264 261 259 258 258 256 255 254 254 254 255 255 254 253 253 254 256 258 259 259 259
274 274 270 264 264 264 264 267 268 267 265 263 262 263 263 264 263 260 260 261 260 262 264 263 262 264 265 263 263 264 265 265 265 265 264 264 263 262 263 263 263 263 264 264 265 265 265 264 263 264 266 267 267 269 270 270 270 270 271 272 273 275 275 273 270 268 266 263 261 260 259 257 256 254 255 255 253 253 253 253 254 255 257 258 258 258
272 273 270 267 268 267 267 267 267 267 266 264 261 260 260 261 260 259 260 261 259 260 264 265 262 263 265 264 262 262 262 263 264 264 264 264 264 263 263 263 263 264 265 266 267 267 267 266 266 267 268 268 269 270 271 271 271 272 272 273 274 275 275 274 272 269 267 265 264 263 262 260 258 255 254 254 253 252 253 254 253 254 255 256 256 257
271 273 270 268 271 271 268 268 266 265 268 269 265 262 262 261 259 259 262 261 259 261 265 266 263 264 266 265 263 262 261 261 263 263 263 263 263 262 262 262 263 264 265 265 266 267 267 267 267 267 267 268 269 270 271 271 271 272 273 274 275 274 274 274 273 271 268 266 265 265 264 262 260 257 254 253 252 251 252 253 253 253 254 254 255 256
273 272 271 271 273 272 270 270 269 266 267 269 269 267 266 265 263 262 264 263 261 264 267 266 266 267 268 266 264 264 263 262 262 262 262 262 261 260 260 260 262 263 264 265 265 266 266 266 266 266 267 267 268 269 270 270 271 272 273 275 275 275 274 274 273 272 270 268 266 265 263 261 260 258 255 253 252 251 252 251 251 251 252 253 254 255
273 272 274 274 273 272 270 270 270 271 271 269 268 267 265 265 264 264 264 262 261 264 267 267 267 269 268 266 264 264 264 262 261 261 262 262 260 258 258 260 262 264 265 265 266 266 267 267 267 267 268 268 269 269 270 270 271 272 273 275 276 276 275 274 273 272 271 269 268 265 263 261 258 257 255 254 254 253 251 249 249 249 251 252 254 255
271 271 273 271 271 273 272 270 271 274 273 270 268 265 262 262 264 265 266 263 261 263 265 265 267 268 266 263 262 263 263 262 261 260 261 261 260 259 259 262 264 265 266 267 267 268 268 268 268 268 269 270 270 270 271 271 271 272 273 274 275 276 276 275 274 273 271 270 268 266 264 262 259 257 255 254 254 252 251 250 249 250 251 253 253 254
271 270 271 269 270 272 274 275 273 270 269 270 271 268 265 264 263 262 263 263 262 264 266 268 269 268 265 263 261 259 259 259 260 261 261 261 260 260 262 264 265 267 268 268 269 269 269 269 269 269 270 270 270 270 271 271 272 272 273 274 274 275 275 275 274 273 272 271 269 267 264 262 260 258 256 254 253 251 250 250 249 249 252 253 252 252
271 269 269 269 269 271 274 275 272 269 269 273 276 273 270 268 264 262 264 267 268 268 270 271 270 267 265 264 261 257 257 259 262 263 263 262 260 260 262 265 267 268 269 270 270 271 271 271 271 271 271 271 271 271 271 272 273 273 274 274 274 274 274 274 273 273 273 271 269 267 265 262 260 258 256 255 253 252 250 249 248 250 252 250 249 250
270 269 269 270 270 270 271 268 266 271 276 278 278 277 274 273 270 266 267 271 270 267 266 267 267 267 266 263 260 259 259 261 264 264 263 262 261 259 261 266 268 269 270 271 272 272 273 273 273 273 273 273 273 273 273 274 274 274 275 275 275 275 274 274 273 273 272 270 269 267 265 263 260 258 256 255 253 252 249 246 246 249 249 246 248 253
269 270 271 272 271 269 268 267 269 276 279 278 277 277 274 271 270 266 264 268 270 266 262 262 263 264 264 261 260 260 260 262 265 265 264 264 262 261 262 266 268 269 270 272 273 274 275 275 275 275 275 275 275 275 275 275 275 275 275 275 275 275 274 273 272 272 271 270 268 266 264 262 260 258 256 253 252 250 247 245 246 247 245 246 251 256
271 271 270 270 272 271 271 273 274 276 275 274 273 274 272 269 267 265 265 267 269 268 264 262 262 262 261 262 261 260 260 262 263 264 266 266 265 264 264 266 268 270 271 273 275 276 277 277 277 277 277 276 276 277 277 277 277 276 276 275 275 274 274 273 272 271 270 269 267 265 263 261 259 257 254 251 249 247 245 245 244 243 243 247 253 256
277 275 272 270 272 272 271 271 271 271 271 272 272 273 274 271 266 265 267 266 266 268 267 263 263 263 262 262 261 259 260 262 260 262 266 267 266 266 267 269 271 272 273 274 275 276 277 278 279 279 279 278 278 279 279 279 278 277 276 275 274 273 272 272 271 270 269 269 267 264 261 259 257 255 252 249 247 244 242 241 240 240 244 251 255 256
279 278 277 274 273 272 271 271 272 272 272 273 273 274 276 274 266 263 265 265 265 268 267 264 264 266 265 263 261 258 260 261 262 265 267 267 268 269 270 271 272 273 274 275 275 276 278 279 280 279 279 280 280 280 280 280 279 277 276 275 273 271 271 271 270 268 266 267 266 263 260 258 255 252 249 246 242 239 238 238 239 243 248 252 255 256
278 278 277 274 272 272 272 272 274 274 273 273 274 276 277 274 267 261 263 265 265 266 267 264 265 267 267 264 262 261 263 265 267 270 271 270 271 271 271 272 273 273 274 275 276 278 279 280 280 280 280 281 281 281 281 280 279 277 276 275 273 271 270 269 268 266 264 264 263 261 258 255 251 248 246 242 237 235 236 238 241 245 248 250 252 254
276 277 276 274 273 274 272 272 275 275 273 272 273 276 277 271 265 262 264 267 268 268 269 269 269 270 269 268 267 268 270 271 272 273 273 273 273 273 273 274 274 274 275 276 277 279 280 280 281 281 281 281 281 281 281 280 278 277 276 275 273 272 270 268 266 265 263 261 260 259 256 252 249 246 243 239 236 235 237 239 242 244 246 247 249 252
274 276 277 274 274 275 273 271 273 273 271 272 273 275 275 270 267 268 270 271 271 271 272 272 272 273 273 273 273 273 274 274 273 273 273 273 274 275 275 275 276 276 277 278 279 280 280 280 280 280 280 280 280 281 281 279 277 276 275 274 273 271 269 266 265 263 261 259 258 256 254 251 247 244 241 237 233 233 235 238 240 242 243 245 248 253
274 274 275 275 275 274 271 268 269 268 268 272 273 272 273 273 273 274 275 273 273 273 273 274 274 275 276 276 276 276 275 275 275 275 275 276 276 277 277 277 277 277 278 279 280 281 280 280 280 280 280 280 280 280 280 278 276 274 273 273 272 271 268 265 263 261 260 257 255 253 252 249 246 241 236 229 227 229 234 237 238 239 242 245 248 253
274 273 274 274 273 271 269 268 269 270 271 273 273 274 276 277 276 275 274 272 271 273 273 274 276 277 277 277 277 276 276 276 277 277 277 278 277 277 277 277 277 278 278 279 280 281 280 280 280 280 280 281 280 280 279 277 274 273 272 272 271 269 265 263 261 260 258 255 252 250 249 247 242 234 227 222 223 228 232 233 235 238 242 246 249 253
276 276 275 274 275 275 274 272 272 272 272 272 272 274 276 276 275 275 274 271 271 273 274 275 277 277 278 278 277 277 277 277 277 277 277 277 278 277 277 278 278 278 279 279 279 280 280 280 280 280 281 281 280 279 278 276 273 272 272 271 269 266 263 260 259 258 255 251 248 246 244 239 231 223 219 218 221 226 228 229 233 238 243 247 250 254
281 280 277 276 277 278 276 275 274 274 273 273 274 275 275 274 274 276 275 273 274 275 276 276 277 278 278 278 278 278 278 278 278 277 277 278 278 278 278 278 278 279 279 279 279 280 280 280 280 280 281 280 280 279 277 275 274 272 270 268 265 262 260 258 257 254 249 243 239 237 233 226 218 214 214 216 219 222 225 229 234 239 243 248 252 256
283 282 280 278 277 276 276 277 278 277 276 276 275 274 274 275 276 277 276 275 276 277 278 278 278 279 279 279 279 279 278 278 278 278 278 278 278 279 279 279 278 279 279 279 279 280 279 279 279 279 279 279 279 279 277 275 273 271 267 264 261 258 256 254 251 246 238 231 227 225 219 211 205 206 209 211 214 217 221 226 231 237 243 250 254 256
282 282 282 280 279 278 278 279 280 280 279 277 276 275 274 275 276 277 277 277 278 279 279 279 279 279 279 279 279 279 279 278 278 278 279 279 279 280 280 280 279 279 279 279 279 279 278 278 278 278 278 278 279 278 277 275 272 268 264 260 256 253 250 246 241 232 223 216 211 205 200 196 195 197 201 204 208 213 219 224 230 237 246 252 254 256
283 282 281 281 281 280 279 280 281 280 279 278 279 279 277 276 276 277 278 278 278 279 279 279 279 279 279 279 279 279 279 279 279 279 279 280 280 280 280 280 280 279 279 279 278 278 277 277 277 277 277 277 278 277 275 273 270 267 263 257 251 245 239 233 224 215 207 200 194 188 187 188 190 192 196 199 203 209 216 224 233 240 246 249 251 255
280 280 280 280 280 280 280 281 281 280 278 279 280 280 278 278 278 278 278 278 278 279 279 279 280 280 280 279 279 279 279 279 279 279 280 280 280 281 280 280 280 279 278 278 278 277 277 277 276 276 275 274 274 274 272 270 269 267 260 252 242 232 222 213 205 198 192 187 183 182 183 186 189 191 193 197 201 207 215 225 232 238 243 246 250 256